FW3224 Weather Reports


time (UTC)temp
F
wind
direction
speed
knots
gust
knots
rain 1hr
in
rain 24hr
in
rain mn
in
humidity
%
barometer
mb
20260505041508 72 244 1.7 6.1 0.00 0.15 0.11 44 1016.3
20260505041007 73 221 1.7 3.5 0.00 0.15 0.11 47 1016.4
20260505040506 72 188 0.9 4.3 0.00 0.15 0.11 46 1016.3
20260505040005 72 252 2.6 4.3 0.00 0.15 0.11 47 1016.3
20260505035505 71 202 1.7 4.3 0.00 0.15 0.11 48 1016.2
20260505035003 71 166 1.7 7.8 0.00 0.15 0.11 48 1016.2
20260505034502 72 293 3.5 7.8 0.00 0.15 0.11 47 1016.1
20260505034101 71 196 0.9 2.6 0.00 0.15 0.11 48 1016.2
20260505033601 71 200 0.9 7.0 0.00 0.15 0.11 49 1016.2
20260505033059 71 250 1.7 7.0 0.00 0.15 0.11 50 1016.1
20260505032558 71 219 1.7 6.1 0.00 0.15 0.11 52 1016.3
20260505032056 71 167 0.9 7.0 0.00 0.15 0.11 52 1016.2
20260505031555 70 205 0.9 7.0 0.00 0.15 0.11 53 1016.3
20260505031054 70 148 0.9 6.1 0.00 0.15 0.11 54 1016.3
20260505030554 70 227 2.6 6.1 0.00 0.15 0.11 53 1016.5
20260505030100 70 223 1.7 6.1 0.00 0.15 0.11 56 1016.5
20260505025550 69 269 2.6 6.1 0.00 0.15 0.11 56 1016.7
20260505025048 69 267 0.9 4.3 0.00 0.15 0.11 57 1016.7
20260505024601 68 247 1.7 6.1 0.00 0.15 0.11 57 1016.9
20260505024047 68 261 3.5 6.1 0.00 0.15 0.11 56 1017.0
20260505023548 68 283 0.9 6.1 0.00 0.15 0.11 59 1017.0
20260505023048 68 236 0.9 3.5 0.00 0.15 0.11 57 1017.0
20260505022547 68 240 2.6 3.5 0.00 0.15 0.11 56 1017.1
20260505022047 68 259 0.9 4.3 0.00 0.15 0.11 56 1017.2
20260505021546 68 215 1.7 6.1 0.00 0.15 0.11 57 1017.2
20260505021045 68 268 2.6 6.1 0.00 0.15 0.11 56 1017.2
20260505020544 68 187 1.7 3.5 0.00 0.15 0.11 56 1017.4
20260505020059 67 239 0.9 5.2 0.00 0.15 0.11 58 1017.4
20260505015544 68 250 1.7 5.2 0.00 0.15 0.11 57 1017.5
20260505015044 68 261 0.9 4.3 0.00 0.15 0.11 58 1017.4
20260505014543 67 267 1.7 7.0 0.00 0.15 0.11 57 1017.6
20260505014042 67 214 1.7 7.0 0.00 0.15 0.11 57 1017.6
20260505013544 67 267 1.7 6.1 0.00 0.15 0.11 59 1017.6
20260505013042 67 244 2.6 6.1 0.00 0.15 0.11 58 1017.8
20260505012542 66 271 2.6 7.8 0.00 0.15 0.11 59 1017.7
20260505012042 66 299 2.6 7.8 0.00 0.15 0.11 60 1017.8
20260505011539 66 238 2.6 5.2 0.00 0.15 0.11 59 1017.9
20260505011040 66 246 2.6 6.1 0.00 0.15 0.11 59 1018.0
20260505010536 66 278 1.7 7.0 0.00 0.15 0.11 58 1017.9
20260505010038 66 264 2.6 7.0 0.00 0.15 0.11 58 1018.0
20260505005536 66 274 2.6 7.8 0.00 0.15 0.11 59 1018.2
20260505005035 65 238 3.5 7.8 0.00 0.15 0.11 58 1018.2
20260505004555 65 252 1.7 6.1 0.00 0.15 0.11 60 1018.1
20260505004036 65 243 3.5 7.0 0.00 0.15 0.11 59 1018.3
20260505003535 65 248 2.6 6.1 0.00 0.15 0.11 60 1018.3
20260505003033 65 277 1.7 4.3 0.00 0.15 0.11 61 1018.3
20260505002533 65 206 1.7 4.3 0.00 0.15 0.11 61 1018.4
20260505002032 65 226 1.7 4.3 0.00 0.15 0.11 61 1018.4
20260505001536 65 249 2.6 7.0 0.00 0.15 0.11 62 1018.5
20260505001032 65 194 2.6 7.0 0.00 0.15 0.11 62 1018.5
20260505000530 65 238 0.9 4.3 0.00 0.15 0.11 64 1018.4
20260505000035 64 209 0.9 4.3 0.00 0.15 0.11 63 1018.3
20260504235529 64 236 1.7 4.3 0.00 0.15 0.11 64 1018.3
20260504235028 64 242 0.9 3.5 0.00 0.15 0.11 66 1018.4
20260504234528 64 234 0.0 3.5 0.00 0.15 0.11 67 1018.4
20260504234027 64 209 0.9 3.5 0.00 0.15 0.11 67 1018.5
20260504233528 63 262 0.9 2.6 0.00 0.15 0.11 68 1018.5
20260504233028 63 261 0.9 3.5 0.00 0.15 0.11 69 1018.5
20260504232527 63 275 0.9 3.5 0.00 0.15 0.11 68 1018.6
20260504232026 63 214 0.9 4.3 0.00 0.15 0.11 69 1018.6
20260504231527 63 211 0.9 4.3 0.00 0.15 0.11 69 1018.6
20260504231027 63 217 1.7 6.1 0.00 0.15 0.11 69 1018.7
20260504230529 63 176 0.9 4.3 0.00 0.15 0.11 70 1018.7
20260504230024 63 223 1.7 4.3 0.00 0.15 0.11 71 1018.8
20260504225525 62 215 0.9 3.5 0.00 0.15 0.11 72 1018.7
20260504225023 62 213 0.9 4.3 0.00 0.15 0.11 73 1018.8
20260504224532 62 207 0.0 4.3 0.00 0.15 0.11 73 1018.7
20260504224023 62 160 0.0 4.3 0.00 0.15 0.11 73 1018.8
20260504223523 61 198 0.9 7.0 0.00 0.15 0.11 74 1018.8
20260504223022 61 125 2.6 7.0 0.00 0.15 0.11 74 1018.7
20260504222520 61 219 0.0 2.6 0.00 0.15 0.11 78 1018.7
20260504222019 60 151 0.0 4.3 0.00 0.15 0.11 78 1018.6
20260504221519 60 134 0.9 6.1 0.00 0.15 0.11 80 1018.5
20260504221017 60 140 0.9 6.1 0.00 0.15 0.11 81 1018.3
20260504220515 60 149 0.9 3.5 0.00 0.15 0.11 82 1018.3
20260504220015 60 111 0.0 3.5 0.00 0.15 0.11 82 1018.1
20260504215514 60 133 0.9 3.5 0.00 0.15 0.11 82 1018.2
20260504215015 60 116 0.9 2.6 0.00 0.15 0.11 82 1018.1
20260504214513 60 170 0.0 2.6 0.00 0.15 0.11 83 1017.9
20260504214012 60 180 0.0 2.6 0.00 0.15 0.11 82 1017.8
20260504213514 60 150 0.0 1.7 0.00 0.15 0.11 83 1017.8
20260504213026 60 148 0.0 1.7 0.00 0.15 0.11 82 1017.7
20260504212509 60 148 0.0 3.5 0.00 0.15 0.11 82 1017.4
20260504212008 59 131 0.9 3.5 0.00 0.15 0.11 83 1017.4
20260504211507 59 138 0.9 2.6 0.00 0.15 0.11 84 1017.4
20260504211005 59 132 0.0 1.7 0.00 0.15 0.11 84 1017.3
20260504210505 59 131 0.0 0.9 0.00 0.15 0.11 84 1017.2
20260504210002 59 131 0.0 3.5 0.00 0.15 0.11 85 1017.0
20260504205501 59 131 0.9 3.5 0.01 0.15 0.11 86 1016.9
20260504205103 59 222 0.0 2.6 0.01 0.15 0.11 88 1016.8
20260504204559 59 135 0.0 1.7 0.01 0.15 0.11 90 1016.8
20260504204058 59 146 0.0 1.7 0.01 0.15 0.11 91 1016.7
20260504203558 59 146 0.0 1.7 0.01 0.15 0.11 91 1016.7
20260504203055 59 252 0.0 0.0 0.01 0.15 0.11 92 1016.5
20260504202554 59 257 0.0 0.9 0.01 0.15 0.11 92 1016.5
20260504202055 59 260 0.0 1.7 0.01 0.15 0.11 93 1016.3
20260504201554 59 260 0.0 1.7 0.01 0.15 0.11 93 1016.3
20260504201052 59 260 0.0 1.7 0.01 0.15 0.11 93 1016.1
20260504200552 60 260 0.0 3.5 0.01 0.15 0.11 94 1016.2
20260504200051 60 198 0.0 3.5 0.01 0.15 0.11 94 1016.1
20260504195549 60 244 0.0 3.5 0.00 0.14 0.10 94 1016.0
20260504195048 60 251 0.0 3.5 0.00 0.14 0.10 95 1016.2
20260504194553 60 251 0.0 2.6 0.00 0.14 0.10 95 1016.0
20260504194046 61 251 0.0 3.5 0.00 0.14 0.10 95 1016.0
20260504193545 61 248 1.7 3.5 0.00 0.14 0.10 96 1016.0
20260504193047 61 284 0.9 2.6 0.00 0.14 0.10 96 1015.8
20260504192542 61 281 1.7 3.5 0.00 0.14 0.10 96 1015.7
20260504192041 62 285 0.9 3.5 0.00 0.14 0.10 96 1015.5
20260504191606 62 259 0.9 2.6 0.00 0.14 0.10 96 1015.5
20260504191040 62 258 0.0 2.6 0.00 0.14 0.10 96 1015.5
20260504190540 62 257 0.0 1.7 0.00 0.14 0.10 96 1015.4
20260504190040 62 257 0.0 1.7 0.00 0.14 0.10 96 1015.3
20260504185538 62 257 0.0 2.6 0.00 0.14 0.10 96 1015.3
20260504185038 62 257 0.0 2.6 0.00 0.14 0.10 96 1015.4
20260504184549 62 257 0.0 2.6 0.00 0.14 0.10 96 1015.3
20260504184038 62 257 0.9 3.5 0.00 0.14 0.10 96 1015.4
20260504183538 62 259 1.7 3.5 0.00 0.14 0.10 96 1015.4
20260504183038 62 282 1.7 3.5 0.00 0.14 0.10 96 1015.4
20260504182537 62 253 0.9 2.6 0.00 0.14 0.10 96 1015.4
20260504182037 62 245 0.9 2.6 0.00 0.14 0.10 96 1015.3
20260504181538 63 242 0.0 2.6 0.00 0.14 0.10 96 1015.3
20260504181037 63 259 0.9 4.3 0.00 0.14 0.10 96 1015.3
20260504180536 63 247 1.7 4.3 0.00 0.14 0.10 96 1015.2
20260504180037 63 285 0.9 2.6 0.00 0.14 0.10 96 1015.2
20260504175536 63 294 0.0 1.7 0.00 0.14 0.10 96 1015.3
20260504175035 63 291 0.9 3.5 0.00 0.14 0.10 95 1015.3
20260504174535 63 291 1.7 4.3 0.00 0.14 0.10 95 1015.2
20260504174035 63 284 1.7 4.3 0.00 0.14 0.10 95 1015.2
20260504173535 63 318 1.7 2.6 0.00 0.14 0.10 95 1014.9
20260504173034 63 298 0.9 2.6 0.01 0.14 0.10 95 1014.8
20260504172534 63 313 0.0 2.6 0.01 0.14 0.10 95 1014.8
20260504172033 63 273 0.9 2.6 0.01 0.14 0.10 95 1015.0
20260504171538 63 289 0.9 3.5 0.01 0.14 0.10 95 1015.0
20260504171033 63 303 0.9 6.1 0.02 0.14 0.10 95 1015.2
20260504170532 63 274 2.6 6.1 0.02 0.14 0.10 95 1015.3
20260504151021 64 265 2.6 8.7 0.02 0.06 0.02 93 1015.2
20260504150524 64 267 3.5 9.6 0.01 0.05 0.01 94 1015.2
20260504141017 63 311 0.0 1.7 0.01 0.04 0.00 94 1014.5
20260504140511 63 297 0.0 1.7 0.01 0.04 0.00 94 1014.5
20260504130507 63 305 0.9 2.6 0.00 0.03 0.03 94 1014.9
20260504110502 64 278 0.0 1.7 0.03 0.03 0.03 91 1015.7
20260504100602 67 287 1.7 8.7 0.00 0.00 0.00 81 1015.9
20260504100105 68 273 2.6 9.6 0.00 0.00 0.00 79 1016.0
20260504081556 70 253 0.9 6.1 0.00 0.00 0.00 72 1014.8
20260504081057 70 277 1.7 7.0 0.00 0.00 0.00 72 1014.8
20260504080557 71 281 2.6 7.0 0.00 0.00 0.00 70 1014.8
20260504050550 75 270 0.0 0.0 0.00 0.00 0.00 61 1014.1
20260504045549 75 271 0.0 0.0 0.00 0.00 0.00 63 1014.1
20260504045049 75 271 0.0 0.0 0.00 0.00 0.00 62 1013.9
20260504044549 75 271 0.0 0.0 0.00 0.00 0.00 61 1014.1
20260504044048 76 274 0.0 1.7 0.00 0.00 0.00 62 1014.0
20260504043548 76 274 0.0 2.6 0.00 0.00 0.00 61 1014.0
20260504043050 76 274 0.9 3.5 0.00 0.00 0.00 59 1014.2
20260504042548 76 235 0.9 3.5 0.00 0.00 0.00 59 1014.3
20260504042046 76 239 0.9 2.6 0.00 0.00 0.00 58 1014.3